Showing default

HBTSS-SV1, 58960

Orbit data source: Space-Track

HBTSS-SV1, 58960 is a payload satellite owned by MDA (US) in LEO that was launched on Wed, 14 Feb 2024 UTC via an FALCON 9 launch vehicle from the Air Force Eastern Test Range (AFETR). Payload-class satellites include a variety of spacecraft equipped with specific instruments for various scientific and technological missions. These include communications satellites like Starlink; space stations such as the ISS; scientific satellites like the Hubble; Earth observation satellites from companies like Planet Labs, Umbra, and HawkEye 360; GPS; miniature CubeSats for education and research; and military/defense satellites.

Loading next visibility...
Identifier
58960, 2024-028F
Orbit
LEO
Country
Flag of USUS
Related business
Manufacturer
L3Harris SIS
Mission
Operational Commercial Early Warn
Bus & Motor
HBT-L3H, Unknown motor
Mass
~1,000 kg wet, ~1,000 kg dry
Launch date (UTC)
2024-02-14 (2 years ago)
Launch vehicle
FALCON 9
Launch site
Air Force Eastern Test Range (AFETR)
Object type
Payload
Rocket body
Debris
Shape & HBR
Box + 2 Pan, 1.0 m
Radar Cross Section
1.012 m², Large (>1 m²)

Expand to show TLE details & history
Last TLE update: 1 week ago

TLE from 1 week ago
0 HBTSS-SV1
1 58960U 24028F   26153.43807416  .00003564  00000-0  33122-3 0  9996
2 58960  39.9876 203.8047 0009332  93.4542 266.7316 14.95189135104978
Epoch: 2026-06-02T10:30Z
TLE epoch observation values (Epoch: 2026-06-02T10:30:49.607Z)
Latitude
-0.00005°
Longitude
155.1869°
Altitude
581.612 km
Speed
7.571 km/s
True Right ascension
13h 35m 13s
True Declination
0° 00' 00"
Sunlit
Object was in full shadow at epoch
Visualization orbit readout
Latitude
Unknown
Longitude
Unknown
Altitude
Unknown
Speed
Unknown
Apparent Right ascension
Unknown
Apparent Declination
Unknown
Sunlit
N/A
Visualization observer readout
Local Sidereal Time
15:54:12
Azimuth
Unknown
Elevation
Unknown
Doppler factor
Unknown
Orbital elements
Apogee altitude
590.696 km
Perigee altitude
577.702 km
Semi-major axis
6,962.336 km
Eccentricity
0.00093
Inclination
39.9876°
RAAN
203.8047°
Arg. of periapsis
93.4542°
True anomaly
266.62484°
Mean anomaly
266.7316°
Eccentric anomaly
266.67822°
Mean motion
3.73603 °/min
Orbital period
96.36 mins
BSTAR
0.00033122
Loading maneuver chart data...
Computing Atmospheric mass density...
Loading historical data...
Loading historical data...
Loading historical data...
Loading historical data...
Loading historical data...
Loading historical data...
Loading historical data...
Other satellites on launch #28 in the year 2024 (2024-02-14 UTC)

Documentation

Showing up to 5 results
|